Weather History for Bradford, PA

Change the Weather History Date:

Wednesday, March 6, 2013

  Actual Average Record
Temperature  
Mean Temperature 32 °F -  
Max Temperature 37 °F 38 °F 64 °F (1961)
Min Temperature 27 °F 18 °F -10 °F (1978)
Degree Days  
Heating Degree Days 33    
Moisture  
Dew Point 22 °F    
Average Humidity 68    
Maximum Humidity 79    
Minimum Humidity 52    
Precipitation  
Precipitation 0.00 in - - ()
Sea Level Pressure  
Sea Level Pressure 29.96 in    
Wind  
Wind Speed 9 mph (NE)    
Max Wind Speed 13 mph    
Max Gust Speed -    
Visibility 10 miles    
Events      
T = Trace of Precipitation, MM = Missing Value Source: NWS Daily Summary

Daily Weather History Graph

Daily Weather History Graph

Search for Another Location

Airport:

Trip Planner

Search our weather history database for the weather conditions in past years. The results will help you decide how hot, cold, wet, or windy it might be!

Date:

Astronomy

Mar. 06, 2013 Rise Set
Actual Time 6:41 AM EST 6:11 PM EST
Civil Twilight 6:13 AM EST 6:38 PM EST
Nautical Twilight 5:41 AM EST 7:11 PM EST
Astronomical Twilight 5:08 AM EST 7:43 PM EST
Moon 2:52 AM EST (3/6) 12:47 PM EST (3/6)
Length of Visible Light 12h 25m
Length of Day
11h 30m
Waning Crescent, 30% of the Moon is Illuminated
Mar 6
Waning Crescent
Mar 11
New
Mar 19
First Quarter
Mar 27
Full
Apr 3
Last Quarter

Hourly Weather History & Observations

Time (EST) Temp. Windchill Dew Point Humidity Pressure Visibility Wind Dir Wind Speed Gust Speed Precip Events Conditions
12:53 AM 28.0 °F 18.6 °F 19.0 °F 69% 29.82 in 10.0 mi East 10.4 mph - N/A   Scattered Clouds
1:53 AM 28.0 °F 18.1 °F 19.0 °F 69% 29.81 in 10.0 mi East 11.5 mph - N/A   Partly Cloudy
2:53 AM 28.0 °F 18.6 °F 19.0 °F 69% 29.80 in 10.0 mi East 10.4 mph - N/A   Clear
3:53 AM 28.0 °F 19.3 °F 19.9 °F 72% 29.81 in 10.0 mi East 9.2 mph - N/A   Clear
4:53 AM 28.9 °F 20.4 °F 19.9 °F 69% 29.83 in 10.0 mi East 9.2 mph - N/A   Clear
5:53 AM 28.0 °F 19.3 °F 19.9 °F 72% 29.86 in 10.0 mi ENE 9.2 mph - N/A   Scattered Clouds
6:04 AM 28.0 °F 20.0 °F 19.9 °F 72% 29.80 in 10.0 mi ENE 8.1 mph - N/A   Mostly Cloudy
6:53 AM 28.0 °F 20.8 °F 19.9 °F 72% 29.88 in 10.0 mi ENE 6.9 mph - N/A   Overcast
7:28 AM 27.0 °F 19.5 °F 19.9 °F 75% 29.84 in 10.0 mi ENE 6.9 mph - N/A   Scattered Clouds
7:37 AM 28.0 °F 19.3 °F 19.9 °F 72% 29.85 in 10.0 mi ENE 9.2 mph - N/A   Mostly Cloudy
7:53 AM 28.0 °F 19.3 °F 21.0 °F 75% 29.92 in 10.0 mi ENE 9.2 mph - N/A   Overcast
8:24 AM 28.9 °F 18.6 °F 21.0 °F 72% 29.87 in 10.0 mi NE 12.7 mph - N/A   Mostly Cloudy
8:53 AM 28.9 °F 20.4 °F 21.0 °F 72% 29.94 in 10.0 mi ENE 9.2 mph - N/A   Overcast
9:53 AM 30.0 °F 21.1 °F 21.9 °F 72% 29.96 in 10.0 mi ENE 10.4 mph - N/A   Overcast
10:53 AM 32.0 °F 25.6 °F 23.0 °F 69% 29.98 in 10.0 mi NE 6.9 mph - N/A   Overcast
11:53 AM 34.0 °F 25.5 °F 21.9 °F 61% 29.99 in 10.0 mi ENE 11.5 mph - N/A   Overcast
12:46 PM 36.0 °F 28.5 °F 21.9 °F 57% 29.94 in 10.0 mi East 10.4 mph - N/A   Overcast
12:53 PM 36.0 °F 28.0 °F 21.9 °F 57% 29.99 in 10.0 mi East 11.5 mph - N/A   Overcast
1:53 PM 36.0 °F 31.1 °F 21.9 °F 57% 29.99 in 10.0 mi NE 5.8 mph - N/A   Overcast
2:53 PM 37.0 °F 31.0 °F 21.0 °F 52% 30.00 in 10.0 mi ENE 8.1 mph - N/A   Overcast
3:53 PM 37.0 °F 31.0 °F 21.0 °F 52% 30.01 in 10.0 mi NE 8.1 mph - N/A   Overcast
4:53 PM 36.0 °F 30.3 °F 21.9 °F 57% 30.03 in 10.0 mi ENE 6.9 mph - N/A   Overcast
5:53 PM 36.0 °F 29.6 °F 21.9 °F 57% 30.06 in 10.0 mi NNE 8.1 mph - N/A   Overcast
6:53 PM 35.1 °F 27.9 °F 24.1 °F 64% 30.08 in 10.0 mi NE 9.2 mph - N/A   Overcast
7:53 PM 34.0 °F 27.2 °F 25.0 °F 70% 30.08 in 10.0 mi NE 8.1 mph - N/A   Overcast
8:35 PM 33.1 °F 28.7 °F 25.0 °F 72% 30.03 in 10.0 mi NNE 4.6 mph - N/A   Overcast
8:53 PM 33.1 °F 27.7 °F 25.0 °F 72% 30.09 in 10.0 mi North 5.8 mph - N/A   Overcast
9:53 PM 33.1 °F 30.0 °F 26.1 °F 75% 30.10 in 10.0 mi North 3.5 mph - 0.00 in   Overcast
10:03 PM 33.1 °F 30.0 °F 26.1 °F 75% 30.04 in 10.0 mi NNE 3.5 mph - N/A   Overcast
10:53 PM 32.0 °F 28.7 °F 26.1 °F 79% 30.11 in 10.0 mi North 3.5 mph - N/A   Overcast
11:53 PM 32.0 °F 27.5 °F 26.1 °F 79% 30.10 in 10.0 mi NNW 4.6 mph - N/A   Overcast